Port Heiden, AK

1:34 AM AKDT on May 28, 2017 (GMT -0800)
Port Heiden

Weather History for PAPH - January, 2014

Change the Weather History Date:

Sunday, January 5, 2014

  Actual Average Record
Temperature  
Mean Temperature 40 °F -  
Max Temperature 46 °F 27 °F 46 °F (2014)
Min Temperature 33 °F 16 °F -17 °F (1997)
Degree Days  
Heating Degree Days 26    
Moisture  
Dew Point 30 °F    
Average Humidity 71    
Maximum Humidity 81    
Minimum Humidity 55    
Precipitation  
Precipitation 0.00 in - - ()
Sea Level Pressure  
Sea Level Pressure 29.15 in    
Wind  
Wind Speed 16 mph (SE)    
Max Wind Speed 28 mph    
Max Gust Speed 40 mph    
Visibility 10 miles    
Events      
Averages and records for this station are not official NWS values.
T = Trace of Precipitation, MM = Missing Value Source: NWS Daily Summary

Daily Weather History Graph

Daily Weather History Graph

Search for Another Location

Airport or City:

Trip Planner

Search our weather history database for the weather conditions in past years. The results will help you decide how hot, cold, wet, or windy it might be!

Date:

Astronomy

Jan. 05, 2014 Rise Set
Actual Time 10:10 AM AKST 5:10 PM AKST
Civil Twilight 9:22 AM AKST 5:58 PM AKST
Nautical Twilight 8:32 AM AKST 6:48 PM AKST
Astronomical Twilight 7:45 AM AKST 7:34 PM AKST
Moon 11:50 AM AKST (1/5) No Moon Set
Length of Visible Light 8h 36m
Length of Day
7h 00m
Waxing Crescent, 26% of the Moon is Illuminated
Jan 5
Waxing Crescent
Jan 7
First Quarter
Jan 15
Full
Jan 23
Last Quarter
Jan 30
New

Hourly Weather History & Observations

Time (AKST) Temp. Windchill Dew Point Humidity Pressure Visibility Wind Dir Wind Speed Gust Speed Precip Events Conditions
12:16 AM 39.2 °F 29.3 °F 32.0 °F 75% 28.98 in 10.0 mi SE 20.7 mph - N/A   Mostly Cloudy
12:36 AM 39.2 °F 30.5 °F 32.0 °F 75% 28.99 in 10.0 mi SE 16.1 mph - N/A   Scattered Clouds
12:56 AM 39.2 °F 31.2 °F 32.0 °F 75% 28.99 in 10.0 mi SE 13.8 mph 17.3 mph N/A   Mostly Cloudy
1:16 AM 39.2 °F 29.8 °F 30.2 °F 70% 28.99 in 10.0 mi SE 18.4 mph - N/A   Scattered Clouds
1:36 AM 39.2 °F 31.2 °F 30.2 °F 70% 29.00 in 10.0 mi East 13.8 mph - N/A   Clear
1:56 AM 39.2 °F 31.6 °F 30.2 °F 70% 28.99 in 10.0 mi ESE 12.7 mph - N/A   Clear
2:16 AM 39.2 °F 31.6 °F 30.2 °F 70% 28.98 in 10.0 mi ESE 12.7 mph - N/A   Partly Cloudy
2:36 AM 39.2 °F 33.6 °F 30.2 °F 70% 28.98 in 10.0 mi ESE 8.1 mph - N/A   Mostly Cloudy
2:56 AM 37.4 °F 29.3 °F 30.2 °F 75% 28.98 in 10.0 mi East 12.7 mph - N/A   Overcast
3:16 AM 37.4 °F 28.5 °F 30.2 °F 75% 28.98 in 10.0 mi East 15.0 mph - N/A   Scattered Clouds
3:36 AM 39.2 °F 31.2 °F 32.0 °F 75% 28.98 in 10.0 mi ESE 13.8 mph - N/A   Mostly Cloudy
3:56 AM 39.2 °F 32.5 °F 32.0 °F 75% 28.99 in 10.0 mi ESE 10.4 mph - N/A   Overcast
4:16 AM 41.0 °F 33.1 °F 32.0 °F 70% 28.98 in 10.0 mi SE 15.0 mph 18.4 mph N/A   Overcast
4:36 AM 39.2 °F 31.6 °F 33.8 °F 81% 28.99 in 10.0 mi SE 12.7 mph - N/A   Overcast
4:56 AM 39.2 °F 30.2 °F 33.8 °F 81% 28.99 in 10.0 mi SSE 17.3 mph - N/A   Mostly Cloudy
5:16 AM 39.2 °F 29.3 °F 33.8 °F 81% 28.98 in 10.0 mi SE 20.7 mph - N/A   Mostly Cloudy
5:36 AM 39.2 °F 30.5 °F 33.8 °F 81% 28.99 in 10.0 mi SSE 16.1 mph - N/A   Overcast
5:56 AM 41.0 °F 33.5 °F 33.8 °F 76% 29.00 in 10.0 mi SSE 13.8 mph - N/A   Overcast
6:16 AM 41.0 °F 33.9 °F 33.8 °F 76% 29.02 in 10.0 mi South 12.7 mph - N/A   Overcast
6:36 AM 39.2 °F 32.5 °F 33.8 °F 81% 29.03 in 10.0 mi SSE 10.4 mph - N/A   Overcast
6:56 AM 41.0 °F 34.7 °F 33.8 °F 76% 29.04 in 10.0 mi SSE 10.4 mph - N/A   Overcast
7:16 AM 41.0 °F 33.9 °F 33.8 °F 76% 29.06 in 10.0 mi SSE 12.7 mph - N/A   Overcast
7:36 AM 41.0 °F 33.9 °F 33.8 °F 76% 29.07 in 10.0 mi SSE 12.7 mph - N/A   Overcast
7:56 AM 41.0 °F 33.5 °F 32.0 °F 70% 29.08 in 10.0 mi SSE 13.8 mph - N/A   Overcast
8:16 AM 39.2 °F 30.2 °F 32.0 °F 75% 29.09 in 10.0 mi SSE 17.3 mph - N/A   Overcast
8:36 AM 39.2 °F 31.6 °F 28.4 °F 65% 29.10 in 10.0 mi SSE 12.7 mph - N/A   Mostly Cloudy
8:56 AM 37.4 °F 28.5 °F 30.2 °F 75% 29.11 in 10.0 mi SSE 15.0 mph - N/A   Clear
9:16 AM 37.4 °F 28.5 °F 30.2 °F 75% 29.12 in 10.0 mi SSE 15.0 mph - N/A   Clear
9:36 AM 39.2 °F 29.8 °F 30.2 °F 70% 29.13 in 10.0 mi SSE 18.4 mph 21.9 mph N/A   Clear
9:56 AM 39.2 °F 30.2 °F 30.2 °F 70% 29.14 in 10.0 mi SSE 17.3 mph - N/A   Scattered Clouds
10:16 AM 39.2 °F 29.3 °F 30.2 °F 70% 29.15 in 10.0 mi SSE 20.7 mph 26.5 mph N/A   Mostly Cloudy
10:36 AM 41.0 °F 33.1 °F 32.0 °F 70% 29.17 in 10.0 mi SSE 15.0 mph - N/A   Overcast
10:56 AM 42.8 °F 33.1 °F 32.0 °F 66% 29.16 in 10.0 mi SSE 25.3 mph 34.5 mph N/A   Overcast
11:16 AM - - - N/A% 29.17 in 10.0 mi SE 24.2 mph 40.3 mph N/A   Partly Cloudy
11:36 AM 42.8 °F 32.7 °F 32.0 °F 66% 29.18 in 10.0 mi SSE 27.6 mph 35.7 mph N/A   Clear
11:56 AM - - - N/A% 29.19 in 10.0 mi SSE 16.1 mph 34.5 mph N/A   Clear
12:16 PM 41.0 °F 30.9 °F 30.2 °F 65% 29.21 in 10.0 mi SSE 24.2 mph 29.9 mph N/A   Clear
12:36 PM 41.0 °F 31.9 °F 30.2 °F 65% 29.23 in 10.0 mi SE 19.6 mph - N/A   Clear
12:56 PM 41.0 °F 31.1 °F 32.0 °F 70% 29.22 in 10.0 mi SE 23.0 mph 29.9 mph N/A   Clear
1:16 PM 39.2 °F 28.5 °F 30.2 °F 70% 29.22 in 10.0 mi SE 24.2 mph 29.9 mph N/A   Clear
1:36 PM 42.8 °F 32.7 °F 30.2 °F 61% 29.22 in 10.0 mi SE 27.6 mph 35.7 mph N/A   Clear
1:56 PM 41.0 °F 30.7 °F 30.2 °F 65% 29.23 in 10.0 mi SE 25.3 mph - N/A   Clear
2:16 PM 41.0 °F 31.9 °F 30.2 °F 65% 29.25 in 10.0 mi SE 19.6 mph 26.5 mph N/A   Clear
2:36 PM 41.0 °F 32.2 °F 30.2 °F 65% 29.25 in 10.0 mi SE 18.4 mph - N/A   Clear
2:56 PM 41.0 °F 32.5 °F 30.2 °F 65% 29.25 in 10.0 mi SE 17.3 mph 21.9 mph N/A   Clear
3:16 PM 41.0 °F 31.6 °F 30.2 °F 65% 29.25 in 10.0 mi SE 20.7 mph - N/A   Clear
3:36 PM 39.2 °F 29.3 °F 30.2 °F 70% 29.25 in 10.0 mi SE 20.7 mph 26.5 mph N/A   Clear
3:56 PM 39.2 °F 29.6 °F 30.2 °F 70% 29.26 in 10.0 mi SSE 19.6 mph - N/A   Clear
4:16 PM 39.2 °F 30.5 °F 28.4 °F 65% 29.26 in 10.0 mi SSE 16.1 mph - N/A   Clear
4:36 PM 39.2 °F 29.6 °F 28.4 °F 65% 29.27 in 10.0 mi SSE 19.6 mph 23.0 mph N/A   Clear
4:56 PM 37.4 °F 29.8 °F 28.4 °F 70% 29.28 in 10.0 mi SE 11.5 mph - N/A   Partly Cloudy
5:16 PM 37.4 °F 29.3 °F 28.4 °F 70% 29.28 in 10.0 mi SE 12.7 mph - N/A   Partly Cloudy
5:36 PM 37.4 °F 29.3 °F 28.4 °F 70% 29.27 in 10.0 mi SE 12.7 mph - N/A   Clear
5:56 PM 37.4 °F 27.5 °F 28.4 °F 70% 29.26 in 10.0 mi SE 18.4 mph - N/A   Clear
6:16 PM 37.4 °F 26.4 °F 28.4 °F 70% 29.25 in 10.0 mi SSE 23.0 mph 28.8 mph N/A   Clear
6:36 PM 37.4 °F 28.2 °F 28.4 °F 70% 29.26 in 10.0 mi SE 16.1 mph - N/A   Clear
6:56 PM 37.4 °F 29.3 °F 28.4 °F 70% 29.27 in 10.0 mi SE 12.7 mph - N/A   Clear
7:16 PM 37.4 °F 29.3 °F 28.4 °F 70% 29.27 in 10.0 mi SE 12.7 mph - N/A   Clear
7:36 PM 37.4 °F 28.9 °F 28.4 °F 70% 29.27 in 10.0 mi SE 13.8 mph - N/A   Scattered Clouds
7:56 PM 37.4 °F 28.5 °F 28.4 °F 70% 29.27 in 10.0 mi SE 15.0 mph - N/A   Scattered Clouds
8:16 PM 37.4 °F 28.5 °F 28.4 °F 70% 29.27 in 10.0 mi SE 15.0 mph - N/A   Clear
8:36 PM 35.6 °F 27.5 °F 28.4 °F 75% 29.26 in 10.0 mi ESE 11.5 mph - N/A   Clear
8:56 PM 35.6 °F 27.1 °F 28.4 °F 75% 29.26 in 10.0 mi East 12.7 mph - N/A   Clear
9:16 PM 35.6 °F 26.6 °F 28.4 °F 75% 29.26 in 10.0 mi East 13.8 mph - N/A   Clear
9:36 PM 35.6 °F 27.5 °F 28.4 °F 75% 29.26 in 10.0 mi East 11.5 mph - N/A   Clear
9:56 PM 35.6 °F 27.5 °F 28.4 °F 75% 29.26 in 10.0 mi ESE 11.5 mph - N/A   Clear
10:16 PM 37.4 °F 28.5 °F 28.4 °F 70% 29.27 in 10.0 mi SE 15.0 mph - N/A   Clear
10:36 PM 37.4 °F 28.2 °F 28.4 °F 70% 29.27 in 10.0 mi SE 16.1 mph - N/A   Clear
10:56 PM 37.4 °F 28.2 °F 28.4 °F 70% 29.27 in 10.0 mi SE 16.1 mph - N/A   Scattered Clouds
11:16 PM 37.4 °F 28.9 °F 28.4 °F 70% 29.27 in 10.0 mi SE 13.8 mph - N/A   Overcast
11:36 PM 37.4 °F 28.5 °F 28.4 °F 70% 29.28 in 10.0 mi SE 15.0 mph - N/A   Overcast
11:56 PM 37.4 °F 28.9 °F 28.4 °F 70% 29.29 in 10.0 mi SE 13.8 mph - N/A   Overcast